7 * 24
多渠道服务支持
STARLINK-5536是美国SpaceX公司于2023年6月22日发射的星链(Starlink)星座卫星之一,属于星链低轨互联网星座的组网卫星。该卫星运行在高度约550公里的近地轨道,主要为地面提供高速卫星互联网接入服务,能为偏远地区、海上、空中等传统网络覆盖不足区域提供低延迟宽带通信支持,是星链全球覆盖计划的重要组成部分,退役后会按计划快速离轨减少太空垃圾。
美国
(US)
| 数据来源 | 国际轨道数据 |
| 星历时间: | 2026-09-14T08:37:21+0800 17小时前 查看轨道信息 |
| 半长轴: | 6861.236km |
| 偏心率: | 0.0001187 |
| 轨道倾角: | 43.001° |
| 近地点辐角 | 252.668° |
| 升交点赤经 | 112.510° |
| 平近点角 | 107.404° |
| 近地点: | 482.284km |
| 远地点: | 483.914km |
| 周期: | 94.268分钟 |
| 每日圈数: | 15.275635 |